Content
SEND FEEDBACK

Daily
Averages
Monthly
Summary
United States of America

WILMINGTON, NORTH CAROLINA


Home > North America > United States > North Carolina
Elevation: 72 feet     Latitude: 34 16N     Longitude: 077 54W

WEATHER
 
SELECT A DAY
Number of Records: 208,938;   Date Range: 1/1/95 - 8/12/14
 
SHARE

PRINT THIS DATA

[ ← Previous Day ]
WEATHER ALMANAC - SEPTEMBER 8, 2013
[ Next Day → ]
[ °C ]   °F
Weather ElementAverageHighLow
Temperature76 °F87.1 °F (1:53 pm)64 °F (5:53 am)
Dewpoint66.3 °F70 °F (3:53 pm)61 °F (5:53 am)
Humidity73.7 %93 % (11:53 pm)49 % (1:53 pm)
Barometer29.95 in29.99 in (1:53 am)29.89 in (3:53 pm)
Wind Speed2.7 mph9.2 mph (6:53 pm)
Weather ElementAverage
Visibility10 mi
Wind DirectionENE (73.5 °)

Weather ElementTotal
Precipitation---
Cooling Degree Days10.6 (Base 65)
Growing Degree Days25.6 (Base 50)
Averaged from 23 records on September 8, 2013
WEATHER CONDITIONS BREAKOUT
WIND DIRECTION BREAKOUT
WEATHER BY HOUR - SEPTEMBER 8, 2013
[ °C ]   °F
Local TimeTemperatureDewpointHumidityBarometerVisibilityWind DirectionWind SpeedGust SpeedPrecipitationEventsConditions
1:53 AM66.0 °F62.1 °F87 %29.99 in10.0 miCalmClear
2:53 AM64.9 °F62.1 °F90 %29.98 in10.0 miCalmClear
3:53 AM64.9 °F62.1 °F90 %29.96 in10.0 miCalmClear
4:53 AM64.9 °F62.1 °F90 %29.96 in10.0 miCalmClear
5:53 AM64.0 °F61.0 °F90 %29.97 in10.0 miCalmClear
6:53 AM64.0 °F61.0 °F90 %29.98 in10.0 miCalmClear
7:53 AM66.9 °F64.0 °F90 %29.99 in10.0 miCalmClear
8:53 AM73.9 °F66.9 °F79 %29.99 in10.0 miSW (220°)3.5 mphClear
9:53 AM79.0 °F66.9 °F66 %29.98 in10.0 miSW (220°)5.8 mphClear
10:53 AM82.0 °F66.9 °F60 %29.97 in10.0 miWSW (240°)5.8 mphClear
11:53 AM84.0 °F64.9 °F53 %29.96 in10.0 miVariable4.6 mphClear
12:53 PM86.0 °F66.0 °F51 %29.94 in10.0 miVariable3.5 mphClear
1:53 PM87.1 °F66.0 °F49 %29.93 in10.0 miCalmClear
2:53 PM87.1 °F66.0 °F49 %29.91 in10.0 miSW (230°)3.5 mphMostly Cloudy
3:53 PM86.0 °F70.0 °F59 %29.89 in10.0 miESE (120°)4.6 mphMostly Cloudy
4:53 PM84.0 °F69.1 °F61 %29.90 in10.0 miEast (100°)8.1 mphMostly Cloudy
5:53 PM84.9 °F70.0 °F61 %29.90 in10.0 miVariable4.6 mphOvercast
6:53 PM82.9 °F69.1 °F63 %29.92 in10.0 miSW (220°)9.2 mphOvercast
7:53 PM78.1 °F69.1 °F74 %29.93 in10.0 miSouth (180°)4.6 mphClear
8:53 PM77.0 °F70.0 °F79 %29.95 in10.0 miSSE (160°)3.5 mphClear
9:53 PM75.9 °F70.0 °F82 %29.97 in10.0 miCalmClear
10:53 PM73.0 °F70.0 °F90 %29.98 in10.0 miCalmClear
11:53 PM72.0 °F70.0 °F93 %29.99 in10.0 miCalmClear
Hourly data recorded from KILM, located miles away from Wilmington, North Carolina







STORIES FROM OUR PARTNERS